CAPE
0 0 0 0 0 0 0 0 0 0 0 0 0 0 0 0 0 0 0 0 0 0 0 0 0 0 0 0 340 368 436 520 634 740 838 860 911 962 942 967 1050 1074 1057 1170 1308 1350 1350 1335 1398 1633 1722 1760 1868 2045 2178 2259 2302 2330 2285 2179 2096 2031 2018 2032 2061 2104 2128 2113 2112 2129 2140 2138 2154 2229 2320 2355 2303 2221 2080 1964 1993 2154 2253 2347 2348 2238 2192
0 0 0 11 0 0 0 0 0 0 0 0 0 0 0 0 0 0 0 0 0 0 0 0 0 0 34 136 191 401 486 565 617 683 723 758 801 830 802 839 939 991 985 1065 1232 1340 1376 1394 1443 1771 1956 1986 2055 2171 2245 2366 2481 2543 2532 2450 2344 2235 2155 2097 2063 2147 2199 2219 2210 2200 2205 2206 2203 2224 2287 2347 2342 2275 2164 2028 1905 1922 2036 2131 2244 2300 2233
1 1 0 15 0 0 0 0 0 0 0 0 0 0 0 0 0 0 0 0 0 0 0 0 0 127 576 519 350 411 582 632 610 628 654 715 764 737 723 767 852 930 986 1014 1108 1255 1404 1472 1484 1762 2125 2243 2280 2381 2437 2492 2642 2802 2792 2727 2591 2486 2388 2316 2308 2249 2208 2280 2293 2278 2268 2252 2240 2229 2233 2279 2299 2267 2196 2095 1948 1843 1873 1960 2037 2144 2232
6 3 0 14 0 0 0 0 0 0 0 0 0 0 0 0 0 0 2 0 0 0 0 0 0 486 681 752 534 418 550 668 679 649 670 728 772 738 704 741 784 822 946 1028 1082 1174 1322 1451 1502 1690 2092 2425 2552 2591 2638 2644 2715 3014 3135 3047 2926 2800 2626 2591 2554 2487 2349 2320 2345 2337 2302 2294 2265 2243 2212 2188 2190 2187 2124 2077 2025 1897 1779 1820 1926 2013 2081
15 13 7 28 7 0 0 0 0 0 0 0 0 0 0 0 0 0 0 0 0 0 0 0 0 0 424 864 895 650 626 662 683 696 717 748 771 724 667 689 716 745 857 1046 1086 1094 1234 1314 1477 1678 1989 2388 2673 2778 2798 2801 2800 3083 3352 3380 3296 3171 3068 2870 2810 2734 2640 2538 2381 2382 2347 2309 2276 2252 2221 2164 2114 2083 2055 1977 1926 1944 1906 1780 1743 1846 2016
24 20 18 14 6 7 7 0 0 0 30 352 484 454 444 649 323 0 0 0 0 5 0 0 0 308 537 808 942 1032 818 771 683 692 723 778 755 694 630 609 637 663 840 1218 1438 1516 1693 1857 1910 2048 2384 2506 2639 2788 2896 2936 2957 3038 3368 3577 3590 3516 3423 3316 3167 3086 3030 2972 2883 2753 2547 2378 2320 2263 2212 2166 2100 2032 1986 1898 1801 1778 1884 1886 1778 1696 1782
31 28 19 13 13 21 19 0 0 104 618 681 539 355 352 363 264 382 270 9 14 3 1 0 0 0 294 460 534 692 1045 949 768 677 702 717 706 640 574 549 553 654 884 1240 1562 1728 1952 2328 2571 2720 2961 3021 3000 2997 3042 3081 3076 3102 3258 3547 3725 3748 3700 3622 3532 3449 3404 3347 3281 3192 3058 2828 2497 2366 2289 2218 2134 2053 1959 1862 1744 1670 1662 1789 1820 1781 1702
22 32 23 1 6 4 12 2 16 82 346 336 600 386 283 367 408 237 445 324 197 0 3 0 0 567 1225 1811 2247 2245 1232 1048 1043 1050 1125 1126 1068 1025 983 1014 1134 1237 1264 1317 1530 1791 1956 2289 2785 3050 3258 3464 3503 3391 3280 3258 3232 3218 3236 3359 3654 3816 3853 3827 3770 3719 3661 3606 3546 3462 3360 3222 2994 2660 2439 2370 2265 2139 2026 1922 1794 1651 1553 1701 1841 1871 1800
24 26 25 1 0 0 23 30 40 8 0 326 610 403 442 425 492 471 477 590 474 46 5 0 658 1451 1736 1955 2390 2653 2515 1154 1032 1185 1540 1767 1684 1530 1489 1670 2146 2360 2372 2210 2143 2696 2704 2591 2714 3111 3335 3565 3717 3689 3610 3539 3490 3459 3429 3405 3380 3696 3835 3900 3906 3874 3828 3771 3699 3628 3534 3415 3261 3053 2728 2511 2435 2299 2152 2016 1930 1828 1730 1724 1938 2092 2121
15 22 22 16 16 2 22 9 19 14 447 612 596 435 547 482 606 766 847 950 832 708 671 332 893 1828 2300 2542 2563 2699 2991 3266 3381 3452 3500 3488 3206 2738 2281 1990 2434 3094 3399 3362 3585 3118 3080 2994 2958 3036 3232 3525 3778 3862 3824 3725 3667 3628 3558 3520 3499 3479 3707 3816 3898 3930 3918 3864 3814 3746 3642 3524 3401 3252 3050 2757 2526 2469 2362 2216 2076 1947 1877 1798 1855 2142 2326
8 18 24 8 3 0 0 4 22 145 420 611 474 460 495 653 732 1047 1099 1182 1198 1158 1246 1437 2118 2580 2665 2591 2657 2717 2878 2919 3080 3164 3166 3166 3262 3254 3255 3234 3254 3742 3800 3771 3733 3601 3658 3587 3457 3366 3430 3493 3697 3892 3948 3946 3880 3817 3783 3725 3673 3626 3576 3703 3820 3911 3954 3944 3892 3815 3722 3609 3504 3376 3220 3027 2780 2561 2511 2388 2276 2132 2034 1959 1918 2003 2252
4 23 17 10 0 5 1 0 18 188 284 327 418 327 536 715 964 1181 1260 1301 1346 1638 1976 2343 2626 2748 2619 2502 2849 2916 2912 3002 2958 3091 3418 3818 4062 4128 4103 3962 3712 3505 3359 3899 4048 4374 4323 4191 4233 4120 4022 3730 3667 3755 3911 4002 4028 4002 3961 3889 3840 3778 3717 3686 3697 3836 3927 3943 3912 3850 3771 3684 3588 3471 3340 3182 3018 2783 2547 2469 2390 2309 2215 2144 2130 2128 2122
1 34 19 4 3 0 0 0 0 2 9 164 361 483 656 806 955 1269 1318 1356 1512 1627 1779 2031 2464 2638 2706 2960 3499 3557 3420 3300 3122 3282 3520 3729 3870 4252 4540 4379 4379 4107 4064 4101 4176 4268 4286 4110 4120 4254 3512 3471 3879 3820 3767 3882 3981 4031 4018 3974 3948 3917 3867 3826 3784 3745 3871 3921 3912 3860 3794 3730 3652 3558 3429 3309 3155 2954 2673 2533 2510 2424 2327 2250 2231 2272 2291
3 42 22 9 3 10 0 0 0 1 7 114 323 553 747 803 969 1168 1228 1279 1495 1871 2207 2491 2694 2737 2935 3267 3540 3611 3518 3380 3191 3035 2987 3039 3187 3500 3894 4743 4223 3439 3627 3685 3867 4021 4259 4387 4085 3905 3998 4292 3513 3144 3523 3729 3787 3760 3792 3854 3902 3918 3912 3883 3835 3788 3778 3907 3917 3886 3828 3771 3714 3610 3501 3390 3239 3074 2882 2651 2704 2626 2536 2424 2335 2304 2362
0 22 29 10 13 0 0 0 0 0 5 174 545 460 584 747 892 1169 1183 1225 1594 2083 2371 2521 2745 2773 2948 3128 3263 3343 3334 3302 3171 2991 2861 2878 2986 3194 3434 3654 4129 3718 3533 3865 3997 3986 4050 4028 4201 4124 3879 3706 4014 4591 3975 3087 3138 3368 3498 3539 3577 3776 3939 3793 3742 3755 3841 3917 3942 3917 3877 3817 3748 3669 3584 3472 3352 3204 3056 2827 2940 2892 2801 2684 2564 2459 2762
0 16 41 21 0 0 0 0 4 3 128 195 303 504 634 740 845 1055 1263 1232 1472 1968 2301 2455 2495 2480 2652 2709 2655 2771 3020 3036 3021 3043 2996 2874 2877 2983 3093 3272 3588 3658 3477 3675 3943 4001 4069 4189 4161 4279 4480 4166 3895 4144 3912 4030 4058 3534 3040 3105 3195 3772 4091 4051 3964 3929 3962 3988 3975 3954 3930 3900 3849 3865 3852 3720 3571 3436 3273 3108 3206 3229 3172 3089 2933 2820 2974
0 5 19 2 0 0 3 0 1 156 48 255 293 486 601 620 729 798 1159 1289 1345 1650 1837 1961 2045 2215 2163 2043 2040 1999 2008 2468 2695 2668 2606 2627 2630 2690 2808 3005 3472 3100 3272 3426 3537 3660 3880 4204 4389 4418 4505 4584 4347 3909 3718 4326 4611 4172 3562 3106 3014 3644 4061 4191 4210 4231 4236 4253 4196 4214 4234 4212 4183 4185 4213 4087 3918 3776 3622 3538 3535 3521 3537 3494 3404 3174 3034
0 0 0 0 0 0 0 0 0 3 49 235 262 251 203 490 508 470 750 983 1194 1369 1303 1582 1634 1704 1811 1850 1885 1842 1862 1972 1984 2176 2463 2754 2935 3003 3075 3124 3045 3012 3243 3332 3096 3118 3162 4071 4408 4420 4534 4398 4513 4568 4752 4963 5254 4754 3882 3409 3151 3454 3968 4190 4308 4478 4601 4641 4607 4596 4611 4566 4504 4509 4538 4471 4313 4175 3980 3860 3841 3820 3832 3764 3757 3692 3601
1 3 0 0 0 0 0 0 0 0 3 213 188 244 311 254 491 591 444 688 662 775 1133 1271 1330 1400 1493 1504 1433 1521 1911 2037 2002 2040 2320 2686 2824 2906 3010 3137 3204 2963 2962 2946 2927 2914 2952 3194 4241 4445 4434 4352 4383 4397 4855 5432 5212 4894 4262 3635 3312 3464 3974 4193 4318 4578 4850 4987 5012 4983 4936 4900 4846 4819 4791 4736 4677 4560 4440 4367 4312 4320 4310 4281 4221 4126 4156
7 6 0 2 0 0 0 0 0 0 0 35 106 174 254 344 436 481 447 324 410 579 687 950 956 969 1038 1080 981 1387 1861 1952 2059 2053 2241 2538 2720 2784 2849 2893 2911 2949 2960 2927 2803 2704 2649 2702 3261 4217 4388 4394 4344 4335 4647 5121 5436 4772 4357 3920 3526 3698 4087 4295 4386 4616 4941 5681 5442 5251 5262 5226 5152 5089 5011 5054 4988 4900 4859 4801 4773 4729 4686 4644 4572 4457 4442
0 0 0 0 0 0 0 0 0 0 0 6 36 133 201 238 316 254 196 376 198 175 227 305 396 414 354 397 492 915 1793 1899 1904 2043 2222 2488 2628 2723 2864 2860 2803 2810 2826 2796 2710 2648 2508 2394 2427 3174 4106 4373 4345 4290 4476 4915 5302 5123 4582 4139 3792 4042 4363 4490 4533 4700 4992 5366 5350 5349 5398 5376 5342 5310 5296 5287 5216 5216 5148 5119 5036 4984 4908 4853 4746 4640 4584
50 24 9 0 0 0 0 0 0 0 0 0 0 5 108 102 141 167 192 263 290 80 21 0 0 0 0 0 332 676 995 1868 1815 1913 2043 2199 2357 2641 2713 2697 2680 2629 2555 2532 2476 2380 2232 2221 2287 2472 2994 3825 4236 4292 4402 4746 4891 5108 4699 4350 4209 4384 4597 4634 4695 4823 5104 5266 5310 5312 5324 5356 5366 5368 5350 5339 5308 5262 5275 5187 5146 5064 4949 4924 4875 4830 4800
36 0 0 0 0 0 0 0 0 0 0 0 0 0 10 27 35 75 106 233 297 248 151 0 0 0 0 0 18 511 603 1104 1550 1662 1681 1870 2030 2397 2546 2551 2477 2445 2372 2248 2084 2138 2252 2177 2252 2451 2641 3133 3542 4029 4234 4680 4758 5000 4905 4660 4500 4569 4745 4762 4842 4928 5083 5152 5213 5193 5159 5194 5203 5226 5184 5255 5347 5289 5206 5200 5135 5111 5026 4969 4941 4947 4943
0 0 0 0 0 0 0 0 0 0 0 0 0 0 0 0 0 19 32 96 135 224 160 5 0 0 0 2 36 116 518 637 793 1231 1419 1496 1780 2271 2437 2431 2356 2248 2132 1963 1970 2116 2168 2188 2237 2362 2505 2779 3208 3612 3816 4586 4472 4716 5001 4803 4640 4674 4805 4894 4977 4997 5059 5074 5054 5037 4976 4953 4961 4953 4939 5000 5034 5072 4984 4985 5059 5125 5117 5031 4851 4771 4704
0 0 0 0 0 0 0 0 0 0 0 0 0 0 0 0 0 0 0 14 70 170 187 170 24 0 0 0 14 128 166 624 778 1400 1423 1592 1530 1895 2290 2339 2351 2260 2097 2088 2247 2260 2146 2095 2181 2290 2390 2492 2711 3198 3682 4265 4449 4295 4702 4892 4734 4685 4757 4904 5026 5100 5064 5030 4979 4900 4880 4856 4913 4868 4796 4757 4681 4628 4687 4592 4670 4746 4753 4721 4592 4390 4215
0 0 0 0 0 0 0 0 0 0 0 0 0 0 0 0 0 0 0 3 6 33 124 280 237 104 0 0 11 113 183 407 814 1036 917 1072 1386 1768 2060 2216 2199 2172 2158 2262 2309 2127 2118 2076 2116 2214 2338 2438 2628 2926 3513 4098 4351 4295 4274 4619 4767 4741 4653 4632 4664 4707 4872 4974 4990 4990 4945 4921 4928 4886 4733 4612 4489 4347 4298 4168 4104 4149 4082 3980 3889 3876 3779
0 0 0 0 0 0 0 0 0 0 0 0 0 0 0 0 0 0 0 0 6 19 50 42 52 85 106 1 12 111 339 577 595 870 1013 1067 1439 1543 1570 1885 1984 2082 2237 2225 2162 2128 2170 2030 2060 2157 2252 2344 2466 2724 3109 3724 4229 4299 4158 4251 4490 4635 4616 4577 4539 4503 4479 4512 4693 4812 4830 4809 4780 4710 4620 4531 4428 4244 4044 3945 3905 3880 3802 3684 3581 3474 3564
0 0 0 0 0 0 0 0 0 0 0 0 0 0 0 0 0 0 0 1 2 19 56 72 44 28 7 0 2 67 642 747 818 898 981 1042 1243 1523 1493 1518 1772 1976 2123 2121 2095 2074 2077 1999 1906 1983 2068 2084 2291 2518 2865 3157 3706 4061 4029 4005 4109 4227 4290 4360 4429 4466 4495 4430 4361 4376 4402 4458 4502 4550 4511 4422 4206 4029 3870 3841 3892 3946 3844 3694 3510 3436 3412
0 0 0 0 0 0 0 0 0 0 0 0 0 0 0 0 0 0 4 10 8 31 45 62 16 21 23 7 34 390 552 634 791 877 892 1020 1168 1414 1358 1445 1741 1831 1910 2028 1951 1711 1792 1788 1681 1696 1914 1978 2097 2290 2513 2871 3307 3786 3971 3853 3854 3933 4003 4112 4213 4236 4141 4078 4097 4210 4340 4394 4251 3893 3932 3830 3597 3589 3628 3542 3422 3343 3404 3294 3179 3174 2938
0 0 0 0 0 0 0 0 0 0 0 0 0 0 0 0 0 1 10 12 23 45 63 77 80 89 65 31 9 55 142 516 1107 1320 1462 1507 1526 1520 1511 1558 1560 1602 1658 1658 1640 1588 1602 1606 1661 1690 1663 1848 1924 2020 2250 2552 2897 3315 3676 3744 3751 3822 3937 3988 4039 3993 3931 3954 4021 3998 4075 4086 3751 3828 3665 3556 3381 3305 3312 3254 3293 3212 3092 2962 2921 2821 2677
0 0 0 0 0 0 0 0 0 0 0 0 0 0 0 0 0 0 0 0 11 25 38 42 36 43 59 42 6 305 648 1130 1229 1240 1308 1400 1454 1488 1481 1491 1478 1479 1497 1530 1474 1452 1415 1437 1575 1647 1604 1563 1766 1820 1911 2083 2573 2756 3090 3280 3418 3507 3644 3794 3807 3796 3765 3806 3769 3737 3681 3693 3619 3392 3143 2874 2944 2819 3004 3070 2880 2452 2236 2178 2158 2128 1992
2 1 0 0 0 0 0 0 0 0 0 0 0 0 0 0 0 0 0 0 4 8 12 42 33 99 212 425 648 941 916 833 779 932 1054 1180 1328 1407 1400 1350 1358 1309 1324 1419 1416 1345 1260 1294 1509 1580 1578 1471 1421 1452 1620 1745 2051 2409 2682 3030 3250 3332 3356 3364 3444 3336 3338 3471 3565 3533 3430 3325 3161 3044 3060 3112 2930 2967 2849 2670 1772 920 806 735 540 24 0
1 2 1 0 0 0 0 0 0 0 0 0 0 0 0 0 0 0 0 2 1 0 0 6 38 147 232 338 447 380 421 448 515 568 756 919 1130 1304 1387 1397 1355 1280 1303 1312 1297 1216 1134 1041 1366 1524 1535 1386 1291 1245 1261 1326 1481 1987 2254 2552 2921 3132 3214 3144 2979 2938 2832 2929 3043 3173 2765 2555 2539 2641 2683 2610 2430 2400 2205 1402 225 0 0 0 0 0 0
7 0 0 0 0 0 0 0 0 0 0 0 0 0 0 0 2 6 0 0 0 0 6 21 19 16 24 94 19 66 155 374 381 367 480 687 916 1066 1185 1298 1399 1339 1300 1242 1131 1049 912 800 1083 1454 1515 1350 1154 1134 1073 933 907 1237 1929 2239 2463 2703 2928 2903 2797 2606 2493 2804 2874 2709 2276 2093 2190 2062 1948 2090 2029 1703 683 0 0 0 0 0 0 0 0
25 29 42 0 0 0 0 0 0 0 0 0 0 0 0 0 0 0 0 0 0 0 14 20 12 8 6 1 0 12 122 208 219 271 368 644 834 953 1031 1192 1352 1348 1277 1206 1142 986 712 842 948 1091 1004 1156 1175 1094 944 644 733 827 992 1659 2164 2360 2434 2450 2475 2503 2533 2576 2532 2571 2401 2246 2176 2066 1820 1629 1058 139 0 0 0 0 0 0 0 0 0
3 32 52 61 50 45 16 2 6 0 0 0 0 0 0 0 1 0 0 0 2 8 16 13 12 9 4 0 0 0 16 24 128 221 345 568 798 863 939 1124 1257 1310 1234 1190 1084 906 662 761 786 724 745 773 739 755 688 645 626 594 665 853 1124 1546 1888 2085 2240 2233 2264 2460 2352 2297 2302 2000 1801 1576 1191 330 0 0 0 0 0 0 0 0 0 0 0
5 4 12 11 21 27 20 39 7 0 0 0 0 3 8 8 0 1 2 4 6 11 17 12 16 10 0 0 0 0 1 1 35 144 276 442 531 721 805 885 1028 1164 1170 1165 1007 792 653 756 625 600 550 631 619 580 564 555 562 481 458 461 595 775 1039 1172 1247 1455 1634 1579 1618 1610 1499 1275 873 162 0 0 0 0 0 0 0 0 0 0 0 0 0
4 4 6 0 0 8 17 12 8 26 15 36 20 4 2 0 0 0 2 4 6 7 8 8 14 4 1 0 0 1 2 3 6 58 114 214 321 519 637 716 836 938 1033 1079 1032 869 732 756 749 566 473 468 421 114 256 0 0 159 306 320 270 0 0 273 477 556 483 407 0 0 0 0 0 0 0 0 0 0 0 0 0 0 0 0 0 0 0
1 3 4 4 1 0 0 2 14 20 18 24 14 0 2 2 0 1 2 2 2 4 9 11 7 3 1 2 2 4 6 5 3 8 61 85 226 388 550 581 645 819 948 968 871 787 549 756 770 655 474 484 421 331 0 0 0 0 0 0 0 0 0 0 0 0 0 0 0 0 0 0 0 0 0 0 0 0 0 0 0 0 0 0 1 0 0
15 8 4 0 1 0 0 1 4 7 20 28 9 0 0 0 1 7 6 7 8 6 8 7 0 0 0 4 3 1 1 5 6 7 4 50 62 254 405 495 566 597 698 312 445 594 489 547 597 618 566 446 353 190 211 248 90 0 0 0 0 0 0 0 0 0 0 0 0 0 0 0 0 0 0 0 0 0 0 0 0 0 0 0 2 2 5
34 31 13 1 0 0 0 2 1 1 2 3 7 24 26 7 6 8 4 3 1 6 0 0 1 5 9 13 16 15 18 14 16 22 21 28 94 231 338 547 362 409 490 378 291 222 334 339 524 613 531 215 168 150 154 106 102 95 0 0 0 0 0 0 0 0 0 0 0 0 0 0 0 0 0 0 0 0 0 0 0 0 0 0 3 6 9
21 24 30 25 6 2 4 11 22 19 14 4 12 6 10 20 28 27 23 18 11 8 13 19 20 9 4 25 32 35 38 44 34 34 36 48 92 132 225 355 389 308 203 175 224 218 237 352 333 1 61 181 203 83 128 102 89 33 46 10 0 10 11 0 0 0 0 0 0 0 0 0 0 0 0 0 0 0 0 0 0 0 2 3 4 6 7
29 26 27 33 46 45 18 8 10 23 25 15 20 26 26 20 17 17 15 28 34 48 24 32 35 37 40 40 40 29 37 26 28 38 25 0 43 50 105 184 143 118 157 142 238 189 190 202 78 0 0 1 101 159 20 0 14 1 2 9 12 12 3 0 0 0 1 1 1 1 1 0 0 0 0 0 0 1 2 1 0 0 0 2 4 3 1
51 38 33 32 29 35 36 39 20 12 20 26 14 8 11 15 23 31 37 43 40 33 29 34 38 43 45 37 39 43 52 46 48 41 44 30 24 13 33 92 140 125 154 141 120 96 67 116 21 0 0 0 0 0 1 1 0 1 4 5 0 0 0 0 0 0 1 0 0 1 1 2 2 2 1 2 2 1 2 3 3 4 3 5 5 3 7
57 71 71 49 34 25 15 15 21 33 33 22 11 7 3 8 7 9 18 26 39 44 41 28 18 26 24 30 35 30 28 22 5 20 31 35 27 14 5 2 1 12 4 38 36 27 26 0 0 0 0 0 0 5 9 4 1 2 1 0 0 0 1 0 0 0 0 0 0 0 0 0 1 1 1 2 1 1 0 1 2 3 3 2 3 2 4
2 12 22 57 36 32 20 10 12 11 8 11 12 17 8 2 10 10 8 10 12 15 19 20 20 24 30 32 23 14 4 20 28 30 28 10 6 11 13 1 2 0 0 0 0 0 0 0 0 0 0 0 0 0 0 0 1 5 11 7 0 0 0 0 0 0 0 0 0 0 0 0 0 0 0 1 1 1 1 1 1 2 2 3 3 3 2
1 1 2 1 3 11 18 14 10 0 0 0 0 2 12 3 0 6 16 9 12 17 14 16 22 25 23 23 36 29 16 14 32 26 5 9 16 22 26 10 1 2 7 0 2 0 0 0 0 0 0 0 0 0 0 0 0 0 1 1 1 1 0 0 0 0 0 0 0 0 0 0 0 0 0 0 0 0 1 1 2 1 2 0 1 0 2
3 1 13 11 4 1 0 1 1 0 0 0 0 0 0 0 0 0 0 0 0 0 20 26 25 26 29 28 22 27 35 14 13 23 6 0 0 1 0 0 3 0 8 5 4 1 0 0 0 0 0 0 0 0 0 0 0 0 0 0 0 0 0 0 0 0 0 0 0 0 0 0 0 0 0 0 0 0 0 0 0 0 0 0 0 0 0
70 55 42 27 11 8 12 12 5 20 0 0 0 0 0 0 0 0 0 1 3 5 9 2 9 11 12 0 4 8 18 20 4 13 3 0 0 0 0 1 0 0 0 0 0 0 1 0 0 0 0 0 0 0 0 0 0 0 0 0 0 0 0 0 0 0 0 0 0 0 0 0 0 0 0 0 0 0 0 0 0 0 0 0 0 0 0
7 4 3 1 11 13 8 3 3 3 11 20 0 0 0 0 0 0 0 0 2 4 10 9 4 3 3 3 2 1 4 5 1 0 0 0 0 0 0 0 0 0 0 0 0 0 0 0 0 0 0 0 0 0 0 0 0 0 0 0 0 0 0 0 0 0 0 0 0 0 0 0 0 0 0 0 0 0 0 0 0 0 0 0 0 0 0
13 19 4 3 3 3 2 14 42 35 13 13 3 4 2 0 3 0 0 0 0 0 9 10 8 6 7 7 1 1 0 0 11 6 1 0 0 0 0 0 0 0 0 0 0 0 0 0 0 0 0 0 0 0 0 0 0 0 0 0 0 0 0 0 0 0 0 0 0 0 0 0 0 0 0 0 0 0 0 0 0 0 0 0 0 0 0
7 3 0 0 3 4 2 4 18 57 1 20 5 4 0 0 0 0 0 0 0 0 0 3 4 2 6 4 5 3 1 0 0 0 0 0 0 0 0 0 0 0 0 0 0 0 0 0 0 0 0 0 0 0 0 0 0 0 0 0 0 0 0 0 0 0 0 0 0 0 0 0 0 0 0 0 0 0 0 0 0 0 0 0 0 0 0
Wind_Speed
nan nan nan nan nan nan nan nan nan nan nan nan nan nan nan nan nan nan nan nan nan nan nan nan nan nan nan nan 20 15 12 13 11 10 10 11 9 9 8 6 8 8 8 9 7 6 5 3 2 0 0 1 2 3 2 3 4 5 7 6 5 4 4 3 3 5 6 6 7 6 5 5 3 2 1 1 1 2 4 5 5 7 7 7 7 8 9
nan nan nan nan nan nan nan nan nan nan nan nan nan nan nan nan nan nan nan nan nan nan nan nan nan nan nan 24 24 24 22 17 13 12 11 11 10 7 3 5 6 8 7 8 8 7 6 3 2 1 2 5 7 7 6 3 1 4 6 5 5 4 3 3 5 6 6 7 7 7 5 4 4 3 2 2 3 4 5 6 7 7 7 7 8 8 9
nan nan nan nan nan nan nan nan nan nan nan nan nan nan nan nan nan nan nan nan nan nan nan nan nan 30 32 35 32 28 25 20 16 14 11 9 9 6 1 5 4 7 10 11 9 7 4 2 1 2 3 5 7 7 7 6 3 2 2 1 1 1 2 4 5 6 6 6 7 6 5 5 4 3 3 3 3 4 4 5 7 7 7 7 8 8 10
nan nan nan nan nan nan nan nan nan nan nan nan nan nan nan nan nan nan nan nan nan nan nan nan nan 37 38 38 36 32 26 20 17 15 9 7 7 4 2 5 5 9 12 13 10 5 3 2 2 2 1 1 3 5 5 5 4 2 3 4 4 3 2 3 4 5 5 6 6 5 6 5 5 5 5 5 5 5 5 5 5 5 6 7 7 8 9
nan nan nan nan nan nan nan nan nan nan nan nan nan nan nan nan nan nan nan nan nan nan nan nan nan nan 42 44 41 38 27 17 17 13 8 4 4 1 2 3 5 7 8 9 7 5 5 3 2 3 1 2 1 1 1 0 0 2 4 5 5 5 3 2 2 3 5 6 6 6 6 6 7 8 7 6 6 5 5 5 5 5 5 6 6 7 8
nan nan nan nan nan nan nan nan nan nan nan 49 54 60 61 55 42 nan nan nan nan nan nan nan nan 46 43 43 40 33 26 18 12 10 8 4 3 2 1 1 3 7 10 11 9 7 6 4 2 3 4 3 3 4 5 5 2 0 2 4 4 5 4 5 5 4 5 6 7 7 8 9 10 9 8 7 7 6 6 7 5 4 3 4 4 6 7
nan nan nan nan nan nan nan nan nan 69 56 54 52 61 70 67 59 49 41 nan nan nan nan nan nan nan 43 46 45 38 31 27 20 15 9 7 5 5 7 8 8 10 11 12 13 13 12 11 11 11 10 9 11 11 10 7 5 4 3 3 3 2 2 4 5 5 6 7 7 8 10 10 11 10 9 8 8 8 8 6 5 4 3 2 3 5 6
nan nan nan nan nan nan nan nan nan nan 63 61 50 65 70 66 56 49 42 42 38 nan nan nan nan 40 43 48 48 43 34 28 26 22 16 10 7 6 9 11 11 11 10 11 12 13 17 18 17 14 13 15 15 13 12 10 9 7 6 5 4 3 1 3 6 6 6 6 6 8 9 10 10 11 10 9 9 9 7 6 6 5 3 1 1 2 3
nan nan nan nan nan nan nan nan nan nan nan 61 52 50 59 61 60 54 47 47 47 nan nan nan 28 40 51 49 45 44 38 33 30 27 21 19 16 14 14 14 14 13 11 12 15 21 23 20 18 15 17 17 16 16 14 12 10 8 7 5 4 3 2 4 7 8 8 8 8 8 9 9 9 10 9 8 8 10 7 5 5 4 2 1 1 0 2
nan nan nan nan nan nan nan nan nan nan 57 52 52 52 54 66 65 57 52 52 52 47 42 35 31 49 52 47 42 40 39 37 37 35 34 32 28 24 23 24 24 23 21 20 18 17 19 20 19 22 21 20 19 17 14 13 11 9 7 4 4 4 3 6 9 11 11 11 11 10 10 10 9 8 9 9 10 11 7 5 4 3 4 4 3 2 0
nan nan nan nan nan nan nan nan nan 71 65 58 55 52 57 62 67 61 55 57 56 52 46 42 36 49 47 43 41 38 37 39 38 39 39 37 34 31 29 27 27 27 24 22 21 20 21 24 27 24 20 19 19 16 15 13 11 9 6 4 4 5 6 8 10 12 13 13 13 12 11 10 9 9 9 10 12 13 9 8 6 8 9 7 5 4 3
nan nan nan nan nan nan nan nan nan 72 70 61 55 57 54 61 70 63 58 60 61 59 54 47 52 47 45 43 43 39 41 42 41 42 43 41 38 35 31 30 28 27 26 27 29 28 28 27 27 28 23 20 17 15 15 15 12 8 6 6 9 11 10 9 11 13 14 15 14 13 12 11 10 10 10 12 14 13 10 10 9 10 9 8 6 7 8
nan nan nan nan nan nan nan nan nan nan nan 63 65 57 54 61 66 66 61 61 62 63 63 59 55 51 45 41 41 45 46 50 47 45 44 40 38 37 34 31 31 31 29 28 28 28 27 29 30 28 25 20 18 18 17 15 10 8 11 15 16 14 12 11 12 14 15 16 16 14 13 13 13 12 12 12 13 14 12 12 12 11 9 9 10 10 11
nan nan nan nan nan nan nan nan nan nan nan 65 61 58 56 61 68 67 66 65 64 64 66 62 59 57 56 52 50 52 54 53 48 46 45 44 42 40 36 35 33 32 31 30 30 30 29 30 29 29 28 27 23 20 18 14 11 16 20 19 18 17 14 12 13 14 15 17 18 17 16 16 14 13 13 13 14 14 14 13 11 10 11 11 12 13 13
nan nan nan nan nan nan nan nan nan nan nan 63 63 60 63 66 69 70 71 69 67 65 65 66 66 64 61 59 56 54 54 55 52 49 48 48 44 43 41 38 35 33 30 29 28 27 28 30 30 29 29 28 28 26 21 18 21 23 21 20 18 17 15 14 15 16 17 18 19 20 19 18 17 15 15 14 14 14 13 13 12 12 11 12 13 14 15
nan nan nan nan nan nan nan nan nan nan 69 64 66 65 64 69 73 73 71 72 69 67 65 66 67 67 65 64 60 57 56 55 53 51 50 47 45 44 42 38 35 33 30 27 26 26 27 29 29 29 28 28 27 28 26 26 25 24 22 21 22 20 18 16 18 19 20 20 21 22 23 22 20 19 18 16 15 14 14 13 14 13 14 14 15 15 15
nan nan nan nan nan nan nan nan nan 56 nan 72 72 70 68 71 77 75 74 76 74 71 68 67 66 65 65 63 62 58 55 54 53 51 49 47 44 42 40 38 36 34 32 28 25 26 28 29 28 28 27 25 24 24 26 29 28 26 25 26 25 23 22 21 21 23 24 24 23 24 25 26 23 21 20 19 16 15 16 16 15 15 15 16 15 17 19
nan nan nan nan nan nan nan nan nan nan nan 75 74 71 70 74 75 76 75 76 77 75 73 70 68 66 63 64 63 61 58 56 54 51 49 48 46 43 40 38 36 35 35 33 30 29 30 30 29 28 27 27 27 25 26 26 24 24 25 25 24 24 25 26 26 27 28 28 27 27 28 27 26 24 23 21 18 17 17 17 17 16 17 19 19 20 22
nan nan nan nan nan nan nan nan nan nan nan 72 74 71 74 76 76 76 78 76 74 73 74 73 69 67 65 64 62 61 59 57 55 53 49 47 46 45 43 39 38 39 38 37 34 30 29 27 28 28 29 28 28 27 28 27 23 23 23 22 22 24 25 27 29 29 29 31 32 33 32 30 29 28 26 23 21 19 18 18 19 19 21 22 22 24 25
nan nan nan nan nan nan nan nan nan nan nan nan 77 72 75 80 79 77 79 79 77 73 72 72 70 68 65 64 62 60 58 56 53 49 47 47 49 47 45 44 44 44 43 41 38 35 32 29 29 30 30 29 29 29 29 29 26 24 24 23 23 23 25 28 29 29 30 33 35 37 38 37 35 33 30 26 23 21 20 20 21 22 24 23 24 26 29
nan nan nan nan nan nan nan nan nan nan nan nan nan 74 78 82 84 82 77 76 77 75 71 69 70 69 68 64 62 61 59 57 52 45 43 45 47 47 47 46 46 46 45 44 42 40 35 32 32 32 31 30 30 29 29 28 28 26 25 25 25 25 26 28 28 30 32 34 37 40 43 46 47 44 39 34 30 28 26 25 21 24 24 25 27 31 36
nan nan nan nan nan nan nan nan nan nan nan nan nan nan 80 83 86 84 79 74 75 nan nan nan nan nan nan nan 63 62 59 56 51 44 42 43 44 43 42 43 45 46 45 44 43 42 37 36 36 34 32 31 30 29 29 29 29 29 27 28 27 26 26 27 30 32 34 35 36 38 39 42 44 47 51 51 42 33 29 31 34 34 32 32 34 40 42
nan nan nan nan nan nan nan nan nan nan nan nan nan nan nan nan nan nan 78 74 74 74 71 nan nan nan nan nan nan 61 60 56 49 45 44 43 41 39 40 43 43 44 45 44 44 43 40 38 38 35 34 33 32 31 31 30 30 31 30 30 29 28 29 29 30 33 34 35 35 37 38 41 43 45 46 50 54 51 44 41 43 49 50 50 47 44 46
nan nan nan nan nan nan nan nan nan nan nan nan nan nan nan nan nan nan nan nan 71 72 70 nan nan nan nan nan nan 60 59 55 51 49 48 45 41 40 41 42 41 42 43 44 44 41 41 40 39 36 35 35 34 33 32 31 32 33 33 33 33 33 33 33 34 35 35 37 37 37 37 38 42 44 47 48 50 52 52 51 52 53 54 55 55 54 54
nan nan nan nan nan nan nan nan nan nan nan nan nan nan nan nan nan nan nan nan nan 72 70 69 nan nan nan nan nan 62 58 54 51 51 50 47 46 45 44 45 44 43 42 42 43 42 42 42 40 39 37 37 36 36 35 33 34 35 34 35 36 36 35 35 35 36 36 37 37 37 37 38 40 43 46 48 50 47 49 53 56 55 55 56 57 56 56
nan nan nan nan nan nan nan nan nan nan nan nan nan nan nan nan nan nan nan nan nan nan 70 67 66 67 nan nan nan 63 61 58 55 54 53 51 49 48 46 43 42 42 42 42 42 41 41 42 41 40 40 40 39 38 38 36 35 37 36 36 36 36 36 37 37 36 36 37 37 37 37 38 39 41 44 47 48 49 48 48 51 54 55 55 55 57 55
nan nan nan nan nan nan nan nan nan nan nan nan nan nan nan nan nan nan nan nan nan nan nan nan nan nan 64 nan nan 64 62 60 60 59 56 54 52 49 45 41 40 41 41 40 40 40 41 41 41 42 43 42 40 39 40 39 38 40 38 38 39 40 43 41 40 39 38 39 39 39 39 40 41 43 44 45 47 48 48 49 50 50 48 49 49 54 55
nan nan nan nan nan nan nan nan nan nan nan nan nan nan nan nan nan nan nan nan nan nan nan nan nan nan nan nan nan nan 65 63 62 60 60 58 55 53 50 43 39 38 38 39 38 38 39 40 41 42 42 42 42 43 43 41 40 40 41 40 41 41 42 43 43 43 42 42 41 42 42 42 42 43 43 44 47 49 51 53 53 53 52 52 51 50 57
nan nan nan nan nan nan nan nan nan nan nan nan nan nan nan nan nan nan nan nan nan nan nan nan nan nan nan nan nan 62 63 62 63 63 62 61 59 56 52 48 43 39 37 38 39 39 39 41 42 42 42 43 44 45 44 43 43 41 42 43 43 43 43 43 44 45 45 45 45 45 46 45 44 44 45 46 47 50 52 53 54 53 54 54 55 55 55
nan nan nan nan nan nan nan nan nan nan nan nan nan nan nan nan nan nan nan nan nan nan nan nan nan nan nan nan nan nan 64 64 63 63 65 64 62 59 56 52 48 43 40 39 40 40 39 39 40 41 41 43 45 46 46 45 46 45 45 45 45 45 45 46 47 48 48 48 48 50 48 47 46 48 48 48 49 50 51 51 52 53 53 54 55 56 56
nan nan nan nan nan nan nan nan nan nan nan nan nan nan nan nan nan nan nan nan nan nan nan nan nan nan nan nan nan 68 67 66 65 64 65 65 65 63 59 56 53 48 42 37 37 39 40 40 40 41 41 42 45 45 45 46 46 47 47 48 49 51 52 53 52 51 50 51 51 51 50 50 49 49 49 48 48 48 48 49 50 52 53 54 55 56 56
nan nan nan nan nan nan nan nan nan nan nan nan nan nan nan nan nan nan nan nan nan nan nan nan nan nan 61 58 59 63 66 65 62 58 54 54 55 57 57 57 55 51 46 42 40 39 40 41 41 40 42 43 45 45 47 48 47 49 48 48 51 51 52 56 54 54 52 53 54 54 53 53 52 50 49 50 50 49 49 49 50 51 51 53 54 nan nan
nan nan nan nan nan nan nan nan nan nan nan nan nan nan nan nan nan nan nan nan nan nan nan nan nan 66 67 65 63 61 59 58 57 54 50 48 47 49 49 50 51 49 48 46 43 41 40 40 39 39 43 45 45 46 48 49 49 49 50 50 51 53 52 52 55 56 55 54 54 55 54 54 53 53 52 51 51 50 50 51 51 nan nan nan nan nan nan
nan nan nan nan nan nan nan nan nan nan nan nan nan nan nan nan nan nan nan nan nan nan nan nan nan nan nan nan nan nan 65 63 59 55 51 49 50 50 49 49 48 49 49 49 49 47 43 40 39 40 44 47 47 48 50 52 51 51 50 51 53 53 54 53 54 55 56 55 54 57 57 56 56 55 54 52 52 52 53 nan nan nan nan nan nan nan nan
nan nan nan nan nan nan nan nan nan nan nan nan nan nan nan nan nan nan nan nan nan nan nan nan nan nan nan nan nan nan 74 69 63 62 59 55 54 53 51 52 52 52 52 53 52 48 47 44 42 44 47 49 50 50 52 54 54 53 54 55 55 55 55 55 55 55 55 55 56 57 58 58 57 57 57 57 56 57 nan nan nan nan nan nan nan nan nan
nan nan nan nan nan nan nan nan nan nan nan nan nan nan nan nan nan nan nan nan nan nan nan nan nan nan nan nan nan nan nan nan 72 70 68 65 62 62 64 63 61 61 60 60 59 55 52 51 54 50 52 50 51 52 55 56 56 55 55 56 57 57 57 57 57 57 56 57 58 58 59 61 61 60 59 60 nan nan nan nan nan nan nan nan nan nan nan
nan nan nan nan nan nan nan nan nan nan nan nan nan nan nan nan nan nan nan nan nan nan nan nan nan nan nan nan nan nan nan nan nan 76 73 71 69 73 72 71 69 65 64 66 60 57 55 54 60 57 52 55 54 55 58 64 58 58 58 59 59 59 59 59 59 59 59 59 60 60 61 62 62 62 nan nan nan nan nan nan nan nan nan nan nan nan nan
nan nan nan nan nan nan nan nan nan nan nan nan nan nan nan nan nan nan nan nan nan nan nan nan nan nan nan nan nan nan nan nan nan nan 77 75 72 77 75 72 68 65 67 64 59 61 59 60 63 60 54 55 57 56 61 nan nan 62 62 62 62 nan nan 62 62 61 61 61 nan nan nan nan nan nan nan nan nan nan nan nan nan nan nan nan nan nan nan
nan nan nan nan nan nan nan nan nan nan nan nan nan nan nan nan nan nan nan nan nan nan nan nan nan nan nan nan nan nan nan nan nan nan nan nan 74 77 72 69 66 65 63 63 67 66 64 64 61 61 59 57 57 60 nan nan nan nan nan nan nan nan nan nan nan nan nan nan nan nan nan nan nan nan nan nan nan nan nan nan nan nan nan nan nan nan nan
nan nan nan nan nan nan nan nan nan nan nan nan nan nan nan nan nan nan nan nan nan nan nan nan nan nan nan nan nan nan nan nan nan nan nan nan nan 71 69 70 67 64 66 71 69 69 72 76 67 62 61 61 59 58 59 65 nan nan nan nan nan nan nan nan nan nan nan nan nan nan nan nan nan nan nan nan nan nan nan nan nan nan nan nan nan nan nan
nan nan nan nan nan nan nan nan nan nan nan nan nan nan nan nan nan nan nan nan nan nan nan nan nan nan nan nan nan nan nan nan nan nan nan nan nan 71 70 70 64 64 65 65 67 70 73 70 67 64 62 60 59 62 58 62 63 nan nan nan nan nan nan nan nan nan nan nan nan nan nan nan nan nan nan nan nan nan nan nan nan nan nan nan nan nan nan
nan nan nan nan nan nan nan nan nan nan nan nan nan nan nan nan nan nan nan nan nan nan nan nan nan nan nan nan nan nan nan nan nan nan nan nan nan 72 72 69 65 66 71 70 70 70 67 67 67 nan nan 59 59 nan 68 63 nan nan nan nan nan nan nan nan nan nan nan nan nan nan nan nan nan nan nan nan nan nan nan nan nan nan nan nan nan nan nan
nan nan nan nan nan nan nan nan nan nan nan nan nan nan nan nan nan nan nan nan nan nan nan nan nan nan nan nan nan nan nan nan nan nan nan nan nan nan 70 67 65 67 75 69 67 66 67 66 nan nan nan nan 66 77 nan nan nan nan nan nan nan nan nan nan nan nan nan nan nan nan nan nan nan nan nan nan nan nan nan nan nan nan nan nan nan nan nan
nan nan nan nan nan nan nan nan nan nan nan nan nan nan nan nan nan nan nan nan nan nan nan nan nan nan nan nan nan nan nan nan nan nan nan nan nan nan nan nan 65 69 76 68 67 nan nan 67 nan nan nan nan nan nan nan nan nan nan nan nan nan nan nan nan nan nan nan nan nan nan nan nan nan nan nan nan nan nan nan nan nan nan nan nan nan nan nan
nan nan nan nan nan nan nan nan nan nan nan nan nan nan nan nan nan nan nan nan nan nan nan nan nan nan nan nan nan nan nan nan nan nan nan nan nan nan nan nan nan nan nan nan nan nan nan nan nan nan nan nan nan nan nan nan nan nan nan nan nan nan nan nan nan nan nan nan nan nan nan nan nan nan nan nan nan nan nan nan nan nan nan nan nan nan nan
nan nan nan nan nan nan nan nan nan nan nan nan nan nan nan nan nan nan nan nan nan nan nan nan nan nan nan nan nan nan nan nan nan nan nan nan nan nan nan nan nan nan nan nan nan nan nan nan nan nan nan nan nan nan nan nan nan nan nan nan nan nan nan nan nan nan nan nan nan nan nan nan nan nan nan nan nan nan nan nan nan nan nan nan nan nan nan
nan nan nan nan nan nan nan nan nan nan nan nan nan nan nan nan nan nan nan nan nan nan nan nan nan nan nan nan nan nan nan nan nan nan nan nan nan nan nan nan nan nan nan nan nan nan nan nan nan nan nan nan nan nan nan nan nan nan nan nan nan nan nan nan nan nan nan nan nan nan nan nan nan nan nan nan nan nan nan nan nan nan nan nan nan nan nan
nan nan nan nan nan nan nan nan nan nan nan nan nan nan nan nan nan nan nan nan nan nan nan nan nan nan nan nan nan nan nan nan nan nan nan nan nan nan nan nan nan nan nan nan nan nan nan nan nan nan nan nan nan nan nan nan nan nan nan nan nan nan nan nan nan nan nan nan nan nan nan nan nan nan nan nan nan nan nan nan nan nan nan nan nan nan nan
nan nan nan nan nan nan nan nan nan nan nan nan nan nan nan nan nan nan nan nan nan nan nan nan nan nan nan nan nan nan nan nan nan nan nan nan nan nan nan nan nan nan nan nan nan nan nan nan nan nan nan nan nan nan nan nan nan nan nan nan nan nan nan nan nan nan nan nan nan nan nan nan nan nan nan nan nan nan nan nan nan nan nan nan nan nan nan
nan nan nan nan nan nan nan nan nan nan nan nan nan nan nan nan nan nan nan nan nan nan nan nan nan nan nan nan nan nan nan nan nan nan nan nan nan nan nan nan nan nan nan nan nan nan nan nan nan nan nan nan nan nan nan nan nan nan nan nan nan nan nan nan nan nan nan nan nan nan nan nan nan nan nan nan nan nan nan nan nan nan nan nan nan nan nan
nan nan nan nan nan nan nan nan nan nan nan nan nan nan nan nan nan nan nan nan nan nan nan nan nan nan nan nan nan nan nan nan nan nan nan nan nan nan nan nan nan nan nan nan nan nan nan nan nan nan nan nan nan nan nan nan nan nan nan nan nan nan nan nan nan nan nan nan nan nan nan nan nan nan nan nan nan nan nan nan nan nan nan nan nan nan nan
nan nan nan nan nan nan nan nan nan nan nan nan nan nan nan nan nan nan nan nan nan nan nan nan nan nan nan nan nan nan nan nan nan nan nan nan nan nan nan nan nan nan nan nan nan nan nan nan nan nan nan nan nan nan nan nan nan nan nan nan nan nan nan nan nan nan nan nan nan nan nan nan nan nan nan nan nan nan nan nan nan nan nan nan nan nan nan
Wind_Direction
nan nan nan nan nan nan nan nan nan nan nan nan nan nan nan nan nan nan nan nan nan nan nan nan nan nan nan nan 267 283 294 294 298 294 273 265 264 256 237 223 240 258 243 215 222 230 212 176 150 175 168 108 140 136 162 229 235 238 229 225 230 242 257 280 284 268 254 246 238 232 228 221 217 216 215 239 306 336 342 352 346 349 342 338 332 328 327
nan nan nan nan nan nan nan nan nan nan nan nan nan nan nan nan nan nan nan nan nan nan nan nan nan nan nan 239 252 257 261 277 292 298 276 272 279 272 225 176 207 229 207 198 216 234 221 196 147 81 46 46 44 42 43 38 192 224 229 221 222 220 226 237 242 252 262 257 256 253 244 237 234 242 250 287 324 346 355 355 353 346 341 335 331 331 332
nan nan nan nan nan nan nan nan nan nan nan nan nan nan nan nan nan nan nan nan nan nan nan nan nan 219 225 233 247 263 272 277 291 301 292 276 285 296 107 134 169 203 190 185 206 224 216 193 75 38 38 40 40 36 37 43 64 167 206 175 157 166 175 224 238 251 258 264 267 275 269 255 253 271 303 299 312 331 344 348 353 346 341 342 334 328 335
nan nan nan nan nan nan nan nan nan nan nan nan nan nan nan nan nan nan nan nan nan nan nan nan nan 221 228 232 236 250 257 270 289 300 303 283 277 303 68 104 155 201 196 191 194 189 149 128 114 121 130 78 39 36 25 34 50 84 75 75 67 79 124 224 243 259 257 261 267 276 273 285 289 290 288 300 312 321 330 337 332 332 348 349 336 330 329
nan nan nan nan nan nan nan nan nan nan nan nan nan nan nan nan nan nan nan nan nan nan nan nan nan nan 224 229 234 243 245 264 284 295 302 279 264 309 42 107 148 173 192 193 191 185 182 157 118 88 133 190 78 29 355 340 211 60 60 69 68 60 45 26 356 304 283 282 282 274 278 277 270 268 284 302 312 313 328 312 294 324 353 345 341 335 333
nan nan nan nan nan nan nan nan nan nan nan 215 214 201 198 195 192 nan nan nan nan nan nan nan nan 231 226 231 228 230 254 255 257 280 285 261 218 190 202 212 166 159 173 181 184 188 187 180 186 203 193 157 171 210 219 222 237 118 88 93 82 57 33 26 23 4 344 332 321 308 289 283 281 286 294 309 304 293 280 281 299 316 321 349 344 339 338
nan nan nan nan nan nan nan nan nan 200 201 209 218 208 200 196 190 180 185 nan nan nan nan nan nan nan 227 224 223 222 227 240 241 243 237 226 216 208 203 209 206 189 176 177 183 187 187 193 203 206 190 183 200 206 208 208 207 202 178 152 134 104 26 1 354 2 5 356 342 323 312 306 305 308 307 296 292 288 286 292 293 294 303 347 5 347 345
nan nan nan nan nan nan nan nan nan nan 194 188 189 204 196 192 184 177 177 189 194 nan nan nan nan 241 237 226 220 218 208 221 237 240 235 229 243 239 220 231 228 218 200 191 192 192 198 204 203 200 194 199 205 203 203 202 202 201 200 190 183 192 241 319 322 326 337 340 335 323 317 315 320 322 313 303 298 285 275 261 253 255 249 222 51 352 338
nan nan nan nan nan nan nan nan nan nan nan 181 185 204 194 187 183 178 178 188 200 nan nan nan 234 237 234 226 217 213 210 212 219 227 225 234 230 230 220 232 233 226 221 209 201 204 207 208 210 203 205 207 207 207 206 198 200 203 202 195 201 224 245 281 298 304 309 318 322 322 319 323 329 324 310 296 277 261 256 248 251 262 267 247 204 278 345
nan nan nan nan nan nan nan nan nan nan 183 180 174 188 198 190 181 177 181 195 198 204 207 207 225 238 235 224 216 213 212 217 227 227 228 225 224 221 216 214 217 218 211 206 205 211 210 209 211 212 213 213 210 209 208 205 207 206 201 184 214 240 261 272 282 288 295 305 312 313 316 328 330 317 297 273 266 256 247 235 226 221 216 209 204 190 94
nan nan nan nan nan nan nan nan nan 173 177 177 177 184 197 187 181 175 185 196 199 200 198 197 212 232 232 228 220 214 218 221 223 227 225 225 225 224 219 218 216 211 205 204 206 208 209 208 203 210 220 220 215 208 206 209 212 212 201 209 239 254 257 262 274 281 286 295 303 308 314 321 319 312 295 277 262 251 235 222 208 207 208 203 194 190 183
nan nan nan nan nan nan nan nan nan 169 173 176 186 190 190 186 179 178 186 196 199 198 196 200 211 215 228 226 224 219 224 228 221 222 224 222 222 222 220 216 216 216 212 210 211 209 204 194 195 205 208 213 214 209 207 211 211 201 208 232 241 243 251 258 263 272 276 288 295 300 306 309 307 305 285 267 262 259 242 222 211 209 206 201 193 192 197
nan nan nan nan nan nan nan nan nan nan nan 185 198 193 188 182 181 185 188 195 200 202 203 202 208 200 206 215 222 225 228 230 224 218 218 219 219 221 218 215 213 217 215 215 215 210 201 196 195 195 202 204 199 202 208 210 198 195 216 229 236 241 244 249 256 268 273 285 295 295 295 298 301 302 294 282 266 259 247 226 212 209 209 206 202 197 204
nan nan nan nan nan nan nan nan nan nan nan 191 195 190 186 185 187 188 192 197 200 204 207 206 206 205 206 208 215 223 228 231 227 222 217 216 217 219 218 215 214 214 212 209 207 204 200 198 195 194 197 199 198 202 203 190 182 206 221 226 229 235 242 245 248 257 269 277 286 287 288 288 289 295 296 289 273 263 248 233 220 213 214 210 205 205 213
nan nan nan nan nan nan nan nan nan nan nan 186 185 186 190 190 189 191 194 199 202 203 207 208 208 209 210 211 212 217 224 229 229 225 222 220 219 219 217 213 211 214 211 207 205 201 199 200 198 196 199 199 197 197 196 184 199 211 216 222 228 232 237 240 242 247 253 269 275 274 279 285 290 296 297 297 283 267 254 236 224 220 219 217 213 213 221
nan nan nan nan nan nan nan nan nan nan 183 180 181 186 191 192 191 193 195 200 203 204 207 209 211 211 212 214 214 217 220 224 228 228 227 225 222 220 218 215 211 211 209 205 204 202 201 201 200 199 202 199 199 195 188 192 202 208 216 219 221 226 230 234 239 240 245 253 264 271 280 283 285 288 293 296 288 269 255 242 232 229 227 226 225 226 233
nan nan nan nan nan nan nan nan nan 183 nan 183 185 185 190 192 192 192 197 200 202 205 207 211 213 212 211 214 215 218 220 225 228 230 229 228 226 224 221 216 213 211 209 207 208 208 205 204 205 201 200 200 200 198 198 202 205 209 213 219 220 221 226 230 235 237 240 243 250 259 268 276 279 280 285 290 287 267 254 245 240 236 234 238 238 238 243
nan nan nan nan nan nan nan nan nan nan nan 182 184 184 186 192 191 193 198 199 200 204 208 211 215 215 212 212 213 215 217 223 227 229 229 228 229 228 226 223 221 220 219 218 216 212 207 206 205 204 201 203 200 196 202 207 212 216 223 225 224 225 227 229 232 235 238 239 243 247 256 264 272 275 280 283 285 274 262 252 248 245 244 245 245 246 249
nan nan nan nan nan nan nan nan nan nan nan 185 182 181 184 187 191 194 197 198 201 202 206 210 214 216 214 213 213 214 214 215 220 224 225 226 226 226 226 227 228 227 227 227 224 220 214 209 210 208 205 204 200 196 200 204 215 227 230 236 235 234 236 236 236 237 239 238 238 238 241 247 255 263 266 270 276 277 270 260 253 251 250 250 249 250 254
nan nan nan nan nan nan nan nan nan nan nan nan 183 180 184 185 190 196 196 194 197 200 204 206 210 212 214 215 215 215 215 214 213 218 222 222 221 218 220 222 226 227 228 228 227 225 219 212 213 212 210 208 203 199 200 205 215 228 232 237 242 242 244 243 244 244 242 244 243 238 234 234 241 248 255 262 270 274 273 264 258 255 255 254 254 257 258
nan nan nan nan nan nan nan nan nan nan nan nan nan 182 181 184 190 194 195 192 193 197 200 203 207 209 210 214 215 215 217 217 214 216 222 221 219 216 217 218 223 226 227 226 224 225 221 215 214 213 212 210 208 205 205 208 220 228 233 235 238 242 245 247 248 249 249 248 244 242 238 237 235 234 233 235 242 247 242 240 251 259 256 255 259 259 263
nan nan nan nan nan nan nan nan nan nan nan nan nan nan 184 183 188 191 193 191 191 nan nan nan nan nan nan nan 213 216 218 221 219 215 217 218 216 215 216 218 221 224 226 227 225 223 221 220 216 213 212 214 212 212 212 213 223 232 235 239 240 242 244 245 247 250 250 251 251 248 246 244 242 238 236 237 233 236 238 232 236 238 251 253 257 259 259
nan nan nan nan nan nan nan nan nan nan nan nan nan nan nan nan nan nan 191 192 192 192 193 nan nan nan nan nan nan 214 218 220 219 216 214 217 220 222 224 224 222 224 224 226 226 224 221 225 223 216 215 215 216 217 217 219 227 232 235 242 243 244 244 244 248 251 252 252 251 251 250 248 245 245 241 234 231 230 236 237 246 251 248 248 251 259 267
nan nan nan nan nan nan nan nan nan nan nan nan nan nan nan nan nan nan nan nan 193 192 192 nan nan nan nan nan nan 214 216 219 217 214 216 221 229 234 235 234 232 229 227 227 226 226 226 227 227 224 221 220 220 221 223 226 231 234 236 242 245 243 242 243 246 247 248 252 254 253 251 250 250 250 247 245 237 232 233 240 241 245 251 254 254 255 260
nan nan nan nan nan nan nan nan nan nan nan nan nan nan nan nan nan nan nan nan nan 195 195 195 nan nan nan nan nan 216 219 220 219 218 222 230 235 238 239 238 235 234 231 229 228 228 229 229 230 230 228 226 224 225 227 229 235 237 237 240 245 245 247 248 248 249 250 251 252 255 255 253 252 252 252 250 250 244 238 239 243 244 246 252 256 259 260
nan nan nan nan nan nan nan nan nan nan nan nan nan nan nan nan nan nan nan nan nan nan 198 196 197 200 nan nan nan 217 219 220 221 223 227 232 235 237 238 240 239 237 236 233 231 229 230 231 231 232 232 230 228 228 231 231 237 241 241 242 245 250 253 254 254 252 252 253 253 252 252 254 254 252 252 253 254 254 251 249 245 243 243 246 253 257 257
nan nan nan nan nan nan nan nan nan nan nan nan nan nan nan nan nan nan nan nan nan nan nan nan nan nan 206 nan nan 216 220 221 223 225 229 234 238 242 243 244 242 241 240 238 236 234 232 232 232 233 232 231 230 230 233 232 237 244 243 246 248 251 258 257 256 256 256 256 256 255 253 253 254 253 252 251 252 253 254 253 252 252 253 248 246 256 261
nan nan nan nan nan nan nan nan nan nan nan nan nan nan nan nan nan nan nan nan nan nan nan nan nan nan nan nan nan nan 219 222 225 227 232 237 241 245 246 243 240 241 240 239 237 233 231 234 234 233 233 232 232 233 233 235 237 243 247 248 251 252 253 256 257 257 258 257 257 258 256 254 254 255 256 255 252 251 250 250 253 255 254 253 255 253 262
nan nan nan nan nan nan nan nan nan nan nan nan nan nan nan nan nan nan nan nan nan nan nan nan nan nan nan nan nan 220 222 224 227 231 237 242 242 243 242 239 235 236 238 238 236 235 235 234 235 236 235 235 236 237 237 237 239 240 247 252 253 254 255 254 256 258 258 258 257 258 259 259 258 257 255 253 253 254 253 254 255 255 257 259 260 260 260
nan nan nan nan nan nan nan nan nan nan nan nan nan nan nan nan nan nan nan nan nan nan nan nan nan nan nan nan nan nan 226 228 231 236 239 240 239 239 239 236 234 236 235 233 232 231 232 233 236 237 236 237 240 241 241 242 242 242 243 247 250 254 257 258 258 258 258 257 258 260 259 257 255 254 254 254 253 252 254 255 256 257 258 259 260 262 264
nan nan nan nan nan nan nan nan nan nan nan nan nan nan nan nan nan nan nan nan nan nan nan nan nan nan nan nan nan 225 229 232 234 235 237 236 233 231 232 236 239 239 238 234 230 229 232 231 232 236 237 240 242 242 243 244 243 244 244 246 247 248 254 259 259 259 259 260 258 257 256 257 257 259 260 259 258 257 257 256 255 256 257 258 259 261 264
nan nan nan nan nan nan nan nan nan nan nan nan nan nan nan nan nan nan nan nan nan nan nan nan nan nan 220 220 223 225 228 228 228 228 228 229 229 229 229 231 231 232 233 230 228 227 228 228 229 231 235 240 244 245 245 244 243 245 244 246 250 250 249 254 256 255 257 257 258 257 256 256 256 257 259 260 260 259 259 258 258 258 259 260 261 nan nan
nan nan nan nan nan nan nan nan nan nan nan nan nan nan nan nan nan nan nan nan nan nan nan nan nan 216 220 223 224 224 223 224 225 225 226 226 225 225 225 227 230 229 228 228 228 227 228 229 230 231 235 238 241 244 245 247 246 246 246 247 248 249 249 247 254 256 253 254 255 256 256 256 256 257 257 258 260 261 260 261 261 nan nan nan nan nan nan
nan nan nan nan nan nan nan nan nan nan nan nan nan nan nan nan nan nan nan nan nan nan nan nan nan nan nan nan nan nan 225 228 229 230 229 229 229 227 225 227 229 231 229 227 226 226 224 225 232 237 238 238 239 241 244 245 244 243 245 247 249 250 250 250 250 253 255 254 253 255 255 255 254 255 255 256 258 259 258 nan nan nan nan nan nan nan nan
nan nan nan nan nan nan nan nan nan nan nan nan nan nan nan nan nan nan nan nan nan nan nan nan nan nan nan nan nan nan 228 231 233 235 234 232 232 232 230 231 232 233 233 232 230 230 226 227 234 242 244 244 243 244 246 247 246 246 246 248 248 249 250 250 251 251 253 254 254 253 253 253 253 253 253 254 255 255 nan nan nan nan nan nan nan nan nan
nan nan nan nan nan nan nan nan nan nan nan nan nan nan nan nan nan nan nan nan nan nan nan nan nan nan nan nan nan nan nan nan 235 235 236 235 235 237 238 238 239 241 242 240 239 237 236 236 229 235 249 246 249 249 250 250 249 249 248 249 249 250 249 250 251 251 251 252 253 252 252 253 253 252 253 253 nan nan nan nan nan nan nan nan nan nan nan
nan nan nan nan nan nan nan nan nan nan nan nan nan nan nan nan nan nan nan nan nan nan nan nan nan nan nan nan nan nan nan nan nan 238 238 238 238 241 241 242 242 244 245 245 241 241 240 239 234 232 246 254 253 253 253 254 251 250 249 249 249 250 250 250 250 251 251 251 252 253 253 253 252 252 nan nan nan nan nan nan nan nan nan nan nan nan nan
nan nan nan nan nan nan nan nan nan nan nan nan nan nan nan nan nan nan nan nan nan nan nan nan nan nan nan nan nan nan nan nan nan nan 240 239 239 243 242 243 243 243 245 246 245 245 243 239 235 240 243 252 255 254 255 nan nan 251 250 249 249 nan nan 250 251 250 251 252 nan nan nan nan nan nan nan nan nan nan nan nan nan nan nan nan nan nan nan
nan nan nan nan nan nan nan nan nan nan nan nan nan nan nan nan nan nan nan nan nan nan nan nan nan nan nan nan nan nan nan nan nan nan nan nan 241 243 244 244 245 246 247 248 247 246 244 242 243 243 244 244 247 252 nan nan nan nan nan nan nan nan nan nan nan nan nan nan nan nan nan nan nan nan nan nan nan nan nan nan nan nan nan nan nan nan nan
nan nan nan nan nan nan nan nan nan nan nan nan nan nan nan nan nan nan nan nan nan nan nan nan nan nan nan nan nan nan nan nan nan nan nan nan nan 244 246 244 242 242 244 245 246 246 243 241 243 244 244 245 246 248 249 253 nan nan nan nan nan nan nan nan nan nan nan nan nan nan nan nan nan nan nan nan nan nan nan nan nan nan nan nan nan nan nan
nan nan nan nan nan nan nan nan nan nan nan nan nan nan nan nan nan nan nan nan nan nan nan nan nan nan nan nan nan nan nan nan nan nan nan nan nan 243 244 244 240 242 242 244 247 247 244 243 244 244 244 244 246 246 246 244 247 nan nan nan nan nan nan nan nan nan nan nan nan nan nan nan nan nan nan nan nan nan nan nan nan nan nan nan nan nan nan
nan nan nan nan nan nan nan nan nan nan nan nan nan nan nan nan nan nan nan nan nan nan nan nan nan nan nan nan nan nan nan nan nan nan nan nan nan 242 242 240 238 240 241 242 243 245 245 246 246 nan nan 243 243 nan 244 248 nan nan nan nan nan nan nan nan nan nan nan nan nan nan nan nan nan nan nan nan nan nan nan nan nan nan nan nan nan nan nan
nan nan nan nan nan nan nan nan nan nan nan nan nan nan nan nan nan nan nan nan nan nan nan nan nan nan nan nan nan nan nan nan nan nan nan nan nan nan 240 238 236 238 239 241 240 242 243 245 nan nan nan nan 243 244 nan nan nan nan nan nan nan nan nan nan nan nan nan nan nan nan nan nan nan nan nan nan nan nan nan nan nan nan nan nan nan nan nan
nan nan nan nan nan nan nan nan nan nan nan nan nan nan nan nan nan nan nan nan nan nan nan nan nan nan nan nan nan nan nan nan nan nan nan nan nan nan nan nan 233 233 234 237 238 nan nan 240 nan nan nan nan nan nan nan nan nan nan nan nan nan nan nan nan nan nan nan nan nan nan nan nan nan nan nan nan nan nan nan nan nan nan nan nan nan nan nan
nan nan nan nan nan nan nan nan nan nan nan nan nan nan nan nan nan nan nan nan nan nan nan nan nan nan nan nan nan nan nan nan nan nan nan nan nan nan nan nan nan nan nan nan nan nan nan nan nan nan nan nan nan nan nan nan nan nan nan nan nan nan nan nan nan nan nan nan nan nan nan nan nan nan nan nan nan nan nan nan nan nan nan nan nan nan nan
nan nan nan nan nan nan nan nan nan nan nan nan nan nan nan nan nan nan nan nan nan nan nan nan nan nan nan nan nan nan nan nan nan nan nan nan nan nan nan nan nan nan nan nan nan nan nan nan nan nan nan nan nan nan nan nan nan nan nan nan nan nan nan nan nan nan nan nan nan nan nan nan nan nan nan nan nan nan nan nan nan nan nan nan nan nan nan
nan nan nan nan nan nan nan nan nan nan nan nan nan nan nan nan nan nan nan nan nan nan nan nan nan nan nan nan nan nan nan nan nan nan nan nan nan nan nan nan nan nan nan nan nan nan nan nan nan nan nan nan nan nan nan nan nan nan nan nan nan nan nan nan nan nan nan nan nan nan nan nan nan nan nan nan nan nan nan nan nan nan nan nan nan nan nan
nan nan nan nan nan nan nan nan nan nan nan nan nan nan nan nan nan nan nan nan nan nan nan nan nan nan nan nan nan nan nan nan nan nan nan nan nan nan nan nan nan nan nan nan nan nan nan nan nan nan nan nan nan nan nan nan nan nan nan nan nan nan nan nan nan nan nan nan nan nan nan nan nan nan nan nan nan nan nan nan nan nan nan nan nan nan nan
nan nan nan nan nan nan nan nan nan nan nan nan nan nan nan nan nan nan nan nan nan nan nan nan nan nan nan nan nan nan nan nan nan nan nan nan nan nan nan nan nan nan nan nan nan nan nan nan nan nan nan nan nan nan nan nan nan nan nan nan nan nan nan nan nan nan nan nan nan nan nan nan nan nan nan nan nan nan nan nan nan nan nan nan nan nan nan
nan nan nan nan nan nan nan nan nan nan nan nan nan nan nan nan nan nan nan nan nan nan nan nan nan nan nan nan nan nan nan nan nan nan nan nan nan nan nan nan nan nan nan nan nan nan nan nan nan nan nan nan nan nan nan nan nan nan nan nan nan nan nan nan nan nan nan nan nan nan nan nan nan nan nan nan nan nan nan nan nan nan nan nan nan nan nan
nan nan nan nan nan nan nan nan nan nan nan nan nan nan nan nan nan nan nan nan nan nan nan nan nan nan nan nan nan nan nan nan nan nan nan nan nan nan nan nan nan nan nan nan nan nan nan nan nan nan nan nan nan nan nan nan nan nan nan nan nan nan nan nan nan nan nan nan nan nan nan nan nan nan nan nan nan nan nan nan nan nan nan nan nan nan nan
nan nan nan nan nan nan nan nan nan nan nan nan nan nan nan nan nan nan nan nan nan nan nan nan nan nan nan nan nan nan nan nan nan nan nan nan nan nan nan nan nan nan nan nan nan nan nan nan nan nan nan nan nan nan nan nan nan nan nan nan nan nan nan nan nan nan nan nan nan nan nan nan nan nan nan nan nan nan nan nan nan nan nan nan nan nan nan